Regional Weather Roundup
Issued by NWS

Home | Current Version | Previous Version | Text Only | Print | Product List | Glossary Off
Versions: 1 2 3 4 5 6 7 8 9 10 11 12 13 14 15 16 17 18 19 20 21 22 23 24 25 26 27 28 29 30 31 32 33 34 35 36 37 38 39 40 41 42 43 44 45 46 47 48 49 50

406
ASUS44 KLIX 302001
RWRLA
LOUISIANA WEATHER ROUNDUP
NATIONAL WEATHER SERVICE NEW ORLEANS LA
300 PM CDT SAT AUG 30 2014

NOTE: "FAIR" INDICATES FEW OR NO CLOUDS BELOW 12,000 FEET WITH NO
      SIGNIFICANT WEATHER AND/OR OBSTRUCTIONS TO VISIBILITY.
      SKY/WX - SKY CONDITION AND SIGNIFICANT WEATHER.
      TMP - AIR TEMPERATURE.    DP   - DEWPOINT TEMPERATURE.
      RH  - RELATIVE HUMIDITY.  PRES - PRESSURE.
      HX  - HEAT INDEX.         WCI  - WIND CHILL INDEX.

*  THESE STATIONS ARE NOT NWS OR FAA STATIONS AND ARE NOT UNDER
   NWS QUALITY CONTROL.

LAZ040-048-061>063-065-066-069-302100-
SOUTHEAST LOUISIANA

CITY           SKY/WX    TMP DP  RH WIND       PRES   REMARKS
N.O. AUDUBON   NOT AVBL
N.O. INTL ARPT LGT RAIN  75  72  90 E3        30.04F
N.O. LAKEFRONT LGT RAIN  76  71  85 SW7       30.05F
N.O. DOWNTOWN* CLOUDY    79  70  73 S5        30.06F
SLIDELL        RAIN      75  73  93 S10       30.09S FOG
BATON ROUGE    RAIN      75  74  96 SE8       30.03F FOG
BOOTHVILLE     CLOUDY    88  78  72 S15       30.03F HX 101
BELLE CHASSE   LGT RAIN  76  72  87 CALM      30.03F
BOGALUSA*        N/A     76  72  87 SW5       30.10F
GALLIANO*      NOT AVBL
NEW ROADS*     LGT RAIN  76  74  95 S3        30.02S
GONZALES*      MOCLDY    77  77 100 E3        30.03S
HAMMOND*       NOT AVBL
HOUMA*         PTSUNNY   77  73  88 SE9       30.03F
PORT FOURCHON* CLEAR     81  72  74 W3        30.04F

$$

LAZ041-044-053-054-302100-
SOUTHWEST LOUISIANA

CITY           SKY/WX    TMP DP  RH WIND       PRES   REMARKS
LAKE CHARLES   LGT RAIN  76  75  97 S7        29.96F
LAFAYETTE      LGT RAIN  76  74  93 S6        30.01S
PATTERSON        N/A     79  75  89 N6        30.03F
SALT POINT       N/A     81  76  84 CALM      29.99F
NEW IBERIA     HVY RAIN  76  74  93 SE10      30.03R FOG
CHENAULT AIRPK RAIN      75  73  94 S9        29.98F

$$

LAZ027-028-302100-
CENTRAL LOUISIANA

CITY           SKY/WX    TMP DP  RH WIND       PRES   REMARKS
FORT POLK      CLOUDY    76  74  93 S10       29.97R
ALEXANDRIA INT LGT RAIN  76  74  93 S9        29.95S
ALEXANDRIA     LGT RAIN  77  74  90 VRB6      29.97S

$$

LAZ001-002-302100-
NORTHWEST LOUISIANA

CITY           SKY/WX    TMP DP  RH WIND       PRES   REMARKS
SHREVEPORT     PTSUNNY   88  71  57 SE7       29.91F
BARKSDALE AFB  CLOUDY    81  73  78 NE6       29.93S
DTN SHREVEPORT PTSUNNY   83  72  69 E8        29.93S

$$

LAZ014-016-302100-
NORTHEAST LOUISIANA

CITY           SKY/WX    TMP DP  RH WIND       PRES   REMARKS
MONROE         CLOUDY    77  74  90 VRB5      29.96F
TALLULAH       LGT RAIN  76  73  91 S12       29.98F

$$




USA.gov is the U.S. government's official web portal to all federal, state and local government web resources and services.